Overview Statistics Trail Chart Weather Telemetry Raw packets
 

This is the latest recevied weather packets stored in our database for station/object K5SVV. If no packets are shown the sender has not sent any weather packets the latest 10 day(s).

<< 45 46 47 48 49 50 51 >>
Time Temp. Humidity Pressure Rain* Wind** Luminosity Snow
1788354324 25.56° C 81% 1015.4 hPa 0 mm - 85 W/m² -
1788354019 25° C 83% 1015.5 hPa 0 mm - 69 W/m² -
1788353715 25° C 85% 1015.5 hPa 0 mm - 42 W/m² -
1788353411 23.89° C 87% 1015.3 hPa 0 mm - 41 W/m² -
1788353107 23.33° C 88% 1015.2 hPa 0 mm - 34 W/m² -
1788352801 23.33° C 88% 1015.1 hPa 0 mm - 24 W/m² -
1788352498 23.33° C 88% 1015 hPa 0 mm - 21 W/m² -
1788352196 22.78° C 88% 1014.9 hPa 0 mm - 19 W/m² -
1788351892 22.78° C 88% 1014.8 hPa 0 mm - 15 W/m² -
1788351588 22.78° C 88% 1014.8 hPa 0 mm - 12 W/m² -
1788351288 22.78° C 88% 1014.9 hPa 0 mm - 9 W/m² -
1788350983 22.78° C 87% 1014.7 hPa 0 mm - 6 W/m² -
1788350679 22.78° C 87% 1014.9 hPa 0 mm - 3 W/m² -
1788350378 22.78° C 87% 1014.6 hPa 0 mm - 0 W/m² -
1788350075 23.33° C 87% 1014.7 hPa 0 mm - 0 W/m² -
1788349771 23.33° C 86% 1014.7 hPa 0 mm - 0 W/m² -
1788349466 23.33° C 86% 1014.8 hPa 0 mm - 0 W/m² -
1788349161 23.33° C 86% 1014.8 hPa 0 mm - 0 W/m² -
1788348857 23.33° C 86% 1014.7 hPa 0 mm - 0 W/m² -
1788348556 23.33° C 86% 1014.9 hPa 0 mm - 0 W/m² -
1788348253 23.33° C 86% 1014.7 hPa 0 mm - 0 W/m² -
1788347948 23.33° C 86% 1014.7 hPa 0 mm - 0 W/m² -
1788347645 23.33° C 86% 1015 hPa 0 mm - 0 W/m² -
1788347340 23.33° C 86% 1014.6 hPa 0 mm - 0 W/m² -
1788347036 23.33° C 86% 1014.7 hPa 0 mm - 0 W/m² -

* Rain latest hour (hover to see other rain measurements)
** Current wind speed in m/s (hover to see current wind gust speed)